www.pogodaiklimat.ru

Погода и климат >> Архив погоды >> Россия >> Приморский край >> Владивосток


АРХИВ ПОГОДЫ в Владивостоке

Время (UTC), дата Ветер
(напр.,м/с)
 
Видим.   Явления Облачность Т
(С)
Тd
(С)
f
(%)
Тe
(С)
Тes
(С)
Комфортность P
(гПа)
Po
(гПа)
Тmin
(С)
Tmax
(С)
R
(мм)
R24
(мм)
S
(см)
03 14.10 Ю 1 50 км 8/8 600 м
[Sc diur, vesp]
+10.6 -2.1 41 +11 +13 тепло 1023.4 1000.5
06 14.10 СЗ 4 50 км 8/8 600 м
[Sc diur, vesp]
+10.5 -3.8 36 +9 +9 по сезону 1023.1 1000.3
09 14.10 З 5
{12}
50 км 5/0
[Ac cast]
+8.8 -2.0 47 +6 +6 по сезону 1025.2 1002.1 +12.0
12 14.10 СЗ 3
{12}
50 км ясно +7.2 -4.5 43 +5 +5 по сезону 1027.7 1004.4
15 14.10 СЗ 3 50 км ясно +5.8 -3.2 52 +3 +3 по сезону 1028.8 1005.4
18 14.10 ЮЗ 3 50 км ясно +5.5 -3.7 52 +3 +3 по сезону 1029.6 1006.2
21 14.10 СЗ 3 50 км ясно +4.1 -3.8 56 +1 +1 прохладно 1030.5 1006.9 +4.1
00 15.10 Ю 2 50 км ясно +6.8 -4.8 43 +5 +8 по сезону 1031.2 1007.8 +4.0
03 15.10 ЮЗ 4 50 км 3/0
[Ci fib]
+11.1 -9.6 22 +9 +14 по сезону 1030.2 1007.2
06 15.10 Ю 5 50 км 3/0
[Ci fib]
+11.9 -5.3 30 +10 +12 по сезону 1028.0 1005.1
09 15.10 ЮВ 3 50 км 4/0
[Ac lent]
+9.1 +0.2 54 +7 +7 по сезону 1028.8 1005.7 +12.4
12 15.10 ЮЗ 4 50 км 4/0
[Ac lent]
+9.0 -1.7 47 +7 +7 по сезону 1029.5 1006.4
15 15.10 З 1 50 км 8/0
[As op]
+6.7 +1.1 67 +6 +6 по сезону 1029.8 1006.5
18 15.10 СВ 3 50 км 4/4 600 м
[Sc]
+6.7 +0.9 66 +4 +4 по сезону 1028.8 1005.5
21 15.10 Ю 5 50 км {дождь} 6/6 600 м
[Sc]
+6.6 +4.1 84 +2 +2 по сезону 1029.0 1005.7 +4.4 0.4
00 16.10 ЮВ 5 50 км {дождь} 10/10 600 м
[Sc]
+8.7 +6.8 88 +5 +5 по сезону 1029.1 1006.0
03 16.10 Ю 4 50 км 3/3 600 м
[Sc]
+11.5 +2.8 55 +10 +13 тепло 1027.4 1004.5
06 16.10 ЮВ 3 20 км 8/8 600 м
[Sc]
+12.6 +3.2 53 +11 +12 по сезону 1025.6 1002.9
09 16.10 В 1 20 км 3/3 600 м
[Sc]
+9.9 -1.0 47 +10 +10 тепло 1025.9 1002.9 +12.8
12 16.10 С 3 20 км ясно +8.3 -2.1 48 +6 +6 по сезону 1026.8 1003.7
15 16.10 СЗ 2 20 км ясно +5.8 +2.6 80 +3 +3 по сезону 1026.9 1003.6
18 16.10 СЗ 4 20 км ясно +5.5 -0.3 66 +2 +2 по сезону 1026.2 1002.9
21 16.10 ЮЗ 3 20 км ясно +5.5 +0.3 69 +2 +2 по сезону 1025.6 1002.3 +5.4
00 17.10 З 3 20 км ясно +6.2 -1.6 57 +4 +6 по сезону 1026.3 1003.1 +5.0
03 17.10 С 11-18
{18}
50 км ясно +8.4 -11.1 24 +4 +4 по сезону 1026.4 1003.3
06 17.10 С 9-14
{18}
50 км ясно +8.8 -12.7 20 +5 +5 прохладно 1026.6 1003.5
09 17.10 С 5
{15}
50 км ясно +7.0 -12.0 24 +4 +4 прохладно 1028.4 1005.1 +9.0
12 17.10 С 5 50 км ясно +4.5 -8.2 39 +1 +1 прохладно 1030.5 1007.0
15 17.10 С 4 50 км ясно +2.7 -3.9 62 -2 -2 холодно 1031.3 1007.6
18 17.10 С 3 50 км ясно +1.1 -6.4 57 -3 -3 холодно 1031.5 1007.7
21 17.10 С 3 50 км ясно +0.7 -3.6 73 -4 -4 холодно 1031.1 1007.3 +0.7
00 18.10 СВ 1 20 км 5/0
[Ci fib]
+3.1 -2.7 66 +2 +5 по сезону 1031.8 1008.1
03 18.10 Ю 4 20 км 8/0
[Ci fib]
+7.7 -8.1 32 +5 +9 по сезону 1029.9 1006.6
06 18.10 Ю 5 20 км 8/0
[Ac lent]
+7.2 -3.4 47 +4 +5 прохладно 1027.5 1004.3
09 18.10 ЮВ 7 20 км 8/0
[Ac As]
+6.3 +0.4 66 +2 +2 прохладно 1026.3 1003.0 +7.8
12 18.10 ЮВ 8
{10}
20 км 8/0
[Ac trans]
+6.9 +2.0 71 +2 +2 прохладно 1025.3 1002.1
15 18.10 ЮВ 8
{12}
20 км 9/0
[Ac trans]
+7.2 +3.4 77 +2 +2 по сезону 1024.2 1001.0
18 18.10 ЮВ 8
{11}
20 км 10/10 600 м
[Sc]
+7.9 +3.7 75 +3 +3 по сезону 1023.0 999.9
21 18.10 ЮВ 8-12
{13}
20 км 10/10 600 м
[Sc]
+8.3 +4.7 78 +4 +4 по сезону 1021.9 998.9 +6.2
00 19.10 ЮВ 9-14
{16}
50 км 10/10 600 м
[Sc]
+8.4 +5.5 82 +4 +4 по сезону 1022.2 999.2
03 19.10 ЮВ 12-17
{17}
50 км 10/0 600 м
[As op]
+8.5 +6.3 86 +3 +3 по сезону 1021.4 998.5
06 19.10 ЮВ 10-14
{18}
50 км 10/0 600 м
[As op]
+8.8 +7.5 92 +4 +4 прохладно 1020.0 997.1
09 19.10 ЮВ 9-12
{14}
50 км 10/0 600 м
[As op]
+8.8 +7.8 93 +4 +4 по сезону 1020.3 997.4 +9.4
12 19.10 ЮВ 8-11
{12}
50 км в посл. час дождь 10/0
[As op]
+8.8 +8.2 96 +4 +4 по сезону 1020.6 997.7
15 19.10 ЮВ 8-11
{13}
10 км слабый дождь 10/0 600 м
[As op]
+8.9 +8.5 97 +4 +4 по сезону 1020.9 998.0
18 19.10 ЮВ 10-14
{15}
10 км слабый дождь 10/0
[As op]
+8.9 +8.4 97 +4 +4 по сезону 1020.0 997.1
21 19.10 Ю 8-11
{15}
10 км слабый дождь 10/0 600 м
[As op]
+8.7 +8.6 99 +4 +4 по сезону 1020.3 997.4 +8.6 16
00 20.10 ЮВ 7
{13}
10 км слабый дождь 10/0 600 м
[As op]
+9.0 +8.6 97 +5 +5 по сезону 1020.9 998.1
03 20.10 ЮВ 7-11
{11}
20 км в посл. час морось {дождь} 10/10 200 м
[Frnb Ns]
+9.8 +9.6 99 +6 +6 по сезону 1020.0 997.2
06 20.10 ЮВ 8-11
{12}
10 км слабый дождь {морось} 10/10 200 м
[Frnb Ns]
+9.3 +9.1 99 +5 +5 по сезону 1018.8 996.0
09 20.10 ЮВ 8-12
{14}
20 км {ливн. осадки, дождь} 10/10 600 м
[Sc]
+9.3 +9.1 99 +5 +5 по сезону 1018.8 996.0 +9.8 9
12 20.10 ЮВ 10-13
{14}
20 км {ливн. осадки, дождь} 9/9 600 м
[Sc]
+9.3 +9.1 99 +4 +4 по сезону 1019.4 996.6
15 20.10 ЮВ 12-16
{17}
20 км 9/9 600 м
[Sc]
+10.0 +9.4 96 +5 +5 по сезону 1018.7 995.9
18 20.10 ЮВ 9-12
{18}
20 км 10/10 600 м
[Sc]
+10.2 +9.8 97 +6 +6 тепло 1018.4 995.7
21 20.10 Ю 10-11
{15}
20 км {гроза, ливн. осадки} 10/10 600 м
[Frnb Ns]
+10.3 +10.1 99 +6 +6 по сезону 1018.4 995.7 +9.2 5
00 21.10 ЮВ 7
{13}
20 км {гроза, ливн. осадки} 10/10 200 м
[St]
+11.2 +11.0 99 +8 +8 тепло 1019.4 996.7

 

Местоположение метеостанции Владивосток (Приморский край, Россия): широта 43.12 долгота 131.90 высота над уровнем моря 188 м.

В архиве по умолчанию представлена погода в Владивостоке за последнюю неделю. Архивные данные за месяц целиком и за предыдущие месяцы, начиная с января 2011 года, Вы можете получить, выбрав интересующий диапазон дат из раскрывающегося списка и нажав кнопку "Ввод!".

Внимание! Время в таблицах - всемирное. Для получения местного времени необходимо прибавить поправку, которая в Владивостоке равна 10 ч.

Смотрите также архив погоды в соседних городах и на ближайших метеорологических станциях:

Погода в Барабаше (Приморский край, Россия) (42 км)
Погода в Находке (Приморский край, Россия) (81 км)
Погода в Гамове (Приморский край, Россия) (84 км)
Погода в Тимирязевском (Приморский край, Россия) (85 км)
Погода в Партизанске (Приморский край, Россия) (89 км)
Погода в Посьете (Приморский край, Россия) (104 км)
Погода в Полтавке (Приморский край, Россия) (112 км)
Погода в Анучино (Приморский край, Россия) (130 км)
Погода в Хороль (Приморский край, Россия) (146 км)
Погода в Пограничном (Приморский край, Россия) (150 км)

Пояснения к столбцам:

Ветер - указаны скорость ветра в м/с - средняя за 10 мин, порывы в срок и между сроками (в фигурных скобках) и направление, откуда дует ветер: С - северный, СВ - северо-восточный, В - восточный, ЮВ - юго-восточный, Ю - южный, ЮЗ - юго-западный, З - западный, СЗ - северо-западный.
Видимость - горизонтальная дальность видимости в метрах или километрах. При видимости от 1 до 10 км при отсутствии осадков обычно наблюдается дымка, при ухудшении видимости до 1 км и менее - туман. В сухую погоду видимость может ухудшаться дымом, пылью или мглою.
Явления - указаны атмосферные явления, наблюдавшиеся в срок или в последний час перед сроком; фигурными скобками обозначены явления, наблюдавшиеся между сроками (за 1-3 часа до срока); квадратными скобками обозначены град или гололедные отложения с указанием их диаметра в мм.
Облачность - указаны через наклонную черту общая и нижняя облачность в баллах и высота нижней границы облаков в метрах; квадратными скобками обозначены формы облаков: Ci - перистые, Cs - перисто-слоистые, Cc - перисто-кучевые, Ac - высококучевые, As - высокослоистые, Sc - слоисто-кучевые, Ns - слоисто-дождевые, Cu - кучевые, Cb - кучево-дождевые. Подробнее классификацию облаков см. в Атласе облаков (PDF).
T - Температура воздуха - температура, измеренная на высоте 2 м над землей.
Td - Температура точки росы - температура, при понижении до которой содержащийся в воздухе водяной пар достигнет насыщения.
f - Относительная влажность воздуха - влажноcть воздуха, измеренная на высоте 2 м над землей.
Te - Эффективная температура - температура, которую ощущает одетый по сезону человек в тени. Характеристика душности погоды. При расчете учитывается влияние влажности воздуха и скорости ветра на теплоощущения человека.
Tes - Эффективная температура на солнце - температура, которую ощущает человек, с поправкой на солнечный нагрев. Характеристика знойности погоды. Зависит от высоты солнца над горизонтом, облачности и скорости ветра. Ночью, в пасмурную погоду, а также при ветре 12 м/с и более поправка равна нулю.
P - Атмосферное давление - приведенное к уровню моря атмосферное давление.
Po - Атмосферное давление - измеренное на уровне метеостанции атмосферное давление.
Tmin - Минимальная температура - минимум температуры воздуха на высоте 2 м над землей.
Tmax - Максимальная температура - максимум температуры воздуха на высоте 2 м над землей.
R - Количество осадков - Количество выпавших осадков за период времени, мм. При наведении курсора мыши на число - период времени, за который выпало указанное количество осадков.
R24 - Количество осадков - Количество выпавших осадков за 24 часа, мм.
S - Снежный покров - Высота снежного покрова, см. При наведении курсора мыши на число - состояние снежного покрова и степень покрытия местности в баллах.